Regional Weather Roundup
Issued by NWS Portland, ME

Current Version | Previous Version | Text Only | Print | Product List | Glossary Off
Versions: 1 2 3 4 5 6 7 8 9 10 11 12 13 14 15 16 17 18 19 20 21 22 23 24 25 26 27 28 29 30 31 32 33 34 35 36 37 38 39 40 41 42 43 44 45 46 47 48 49 50
000 ASUS41 KGYX 190110 RWRGYX WEATHER ROUNDUP FOR MAINE AND NEW HAMPSHIRE NATIONAL WEATHER SERVICE GRAY ME 900 PM EDT SAT AUG 18 2018 MEZ002-005-006-010-012-015-018-020-021-024-026-027-029-190200- MAINE CITY SKY/WX TMP DP RH WIND PRES REMARKS PORTLAND CLOUDY 69 62 78 N10 29.91R SANFORD CLOUDY 68 62 81 N12 29.92R BAR HARBOR FAIR 63 60 90 CALM 29.90R WISCASSET CLOUDY 67 62 84 CALM 29.92R ROCKLAND FAIR 66 62 87 VRB5 29.90R FRYEBURG CLOUDY 66 62 87 CALM 29.95R LEWISTONAUBURN FAIR 65 62 90 N3 29.93R AUGUSTA CLOUDY 64 61 90 NW3 29.93R WATERVILLE FAIR 64 61 90 N3 29.90R BANGOR FAIR 63 61 93 N7 29.91R GREENVILLE N/A 60 56 86 NE3 29.95R MILLINOCKET FAIR 64 58 80 NW3 29.94R HOULTON FOG 57 57 100 CALM 29.91R VSB 3/4 PRESQUE ISLE MOCLDY 60 59 96 VRB3 29.94R FRENCHVILLE FAIR 65 52 62 N9 29.95R CARIBOU MOCLDY 67 58 72 N5 29.93R $$ NHZ002-005-008-009-011-012-014-190200- NEW HAMPSHIRE CITY SKY/WX TMP DP RH WIND PRES REMARKS PORTSMOUTH LGT RAIN 67 64 91 NE10G18 29.89R FOG ROCHESTER CLOUDY 68 63 84 N6 29.91R NASHUA RAIN 68 68 100 NE7 29.91R FOG MANCHESTER CLOUDY 69 66 90 NE9 29.88R CONCORD CLOUDY 70 61 73 E12G18 29.91R LACONIA CLOUDY 67 62 84 NE13 29.93R PLYMOUTH LGT RAIN 65 63 93 CALM 29.93R BERLIN FAIR 59 59 100 CALM 29.97R WHITEFIELD CLOUDY 65 62 90 CALM 29.96R JAFFREY CLOUDY 68 64 87 CALM 29.93R KEENE CLOUDY N/A N/A N/A N6 29.91R LEBANON LGT RAIN 69 61 75 NE3 29.93R MT WASHINGTON FOG 46 46 100 NE26G36 N/A VSB 0 $$ VTZ005-007-008-190200- VERMONT CITY SKY/WX TMP DP RH WIND PRES REMARKS ST JOHNSBURY N/A 66 63 90 MISG 29.94R MONTPELIER CLOUDY 64 63 96 N3 30.00R BURLINGTON FAIR 68 63 84 CALM 29.94R $$ MAZ007-012-024-CTZ003-RIZ002-NYZ038-NYZ072-190200- SOUTHERN NEW ENGLAND AND NY CITY SKY/WX TMP DP RH WIND PRES REMARKS BOSTON CLOUDY 70 66 87 NE18G28 29.87R WORCESTER CLOUDY 67 64 90 N10 29.89R NANTUCKET FAIR 74 72 93 NE3 29.82S PROVIDENCE MOCLDY 73 72 94 NE7 29.84R HARTFORD MOCLDY 71 66 84 N12 29.86R ALBANY MOCLDY 69 60 73 N8 29.92R NEW YORK CITY CLOUDY 76 70 82 N9 29.83R $$ ANZ081-ANZ082-ANZ150-NHZ014-MEZ023>029-190200- COASTAL MARINE OBSERVATIONS STATION/POSITION TIME TEMP WIND PRES WAVE AIR SEA DIR/SP/G HT/PER (UTC) (F) (DEG/KT/KT) (MB) (FT/S) MOUNT DESERT ROC 0000 61 360/ 14/ 14 1011.2R MATINICUS ROCK 0000 63 30/ 13/ 14 1011.1R ISLE OF SHOALS 0000 66 50/ 21/ 24 1010.2R JEFFREYS LEDGE 0036 69 N/A 3/ 4 $$ .............KEY.............. WCI - WIND CHILL TC - TEMPERATURE IN CELSIUS VSB - VISIBILITY IN MILES HX - HEAT INDEX FAIR- INDICATES FEW OR NO CLOUDS BELOW 12,000 FT, WITH NO SIGNIFICANT WEATHER AND/OR OBSTRUCTIONS TO VISIBILITY.

USA.gov is the U.S. government's official web portal to all federal, state and local government web resources and services.